| time (UTC) | temp F | wind direction | speed MPH | gust MPH | rain 1hr in | rain 24hr in | rain mn in | humidity % | barometer mb |
| 20260901084515 | 54 | 90 | 1.0 | 3.0 | 0.00 | 0.00 | 0.00 | 82 | 1012.6 |
| 20260901083016 | 55 | 113 | 2.0 | 4.0 | 0.00 | 0.00 | 0.00 | 81 | 1012.6 |
| 20260901081515 | 55 | 113 | 2.0 | 4.0 | 0.00 | 0.00 | 0.00 | 81 | 1012.7 |
| 20260901080016 | 55 | 113 | 2.0 | 5.0 | 0.00 | 0.00 | 0.00 | 80 | 1012.7 |
| 20260901074516 | 56 | 135 | 2.0 | 6.0 | 0.00 | 0.00 | 0.00 | 79 | 1012.9 |
| 20260901073016 | 56 | 135 | 1.0 | 6.0 | 0.00 | 0.00 | 0.00 | 79 | 1012.9 |
| 20260901071536 | 57 | 135 | 1.0 | 7.0 | 0.00 | 0.00 | 0.00 | 79 | 1012.8 |
| 20260901070015 | 57 | 113 | 2.0 | 5.0 | 0.00 | 0.00 | 0.00 | 79 | 1012.7 |
| 20260901064517 | 58 | 113 | 2.0 | 4.0 | 0.00 | 0.00 | 0.00 | 78 | 1012.8 |
| 20260901063016 | 58 | 113 | 1.0 | 5.0 | 0.00 | 0.00 | 0.00 | 77 | 1012.8 |
| 20260901061517 | 59 | 113 | 1.0 | 4.0 | 0.00 | 0.00 | 0.00 | 75 | 1012.7 |
| 20260901060016 | 59 | 113 | 1.0 | 3.0 | 0.00 | 0.00 | 0.00 | 74 | 1012.7 |
| 20260901054517 | 60 | 113 | 2.0 | 3.0 | 0.00 | 0.00 | 0.00 | 73 | 1012.7 |
| 20260901053036 | 60 | 113 | 1.0 | 3.0 | 0.00 | 0.00 | 0.00 | 72 | 1012.6 |
| 20260901051517 | 61 | 113 | 1.0 | 3.0 | 0.00 | 0.00 | 0.00 | 71 | 1012.4 |
| 20260901050036 | 61 | 113 | 1.0 | 3.0 | 0.00 | 0.00 | 0.00 | 71 | 1012.5 |
| 20260901044536 | 61 | 113 | 1.0 | 4.0 | 0.00 | 0.00 | 0.00 | 70 | 1012.2 |
| 20260901043036 | 62 | 113 | 1.0 | 3.0 | 0.00 | 0.00 | 0.00 | 70 | 1012.3 |
| 20260901041517 | 62 | 0.0 | 3.0 | 0.00 | 0.00 | 0.00 | 68 | 1012.0 | |
| 20260901040036 | 63 | 0.0 | 2.0 | 0.00 | 0.00 | 0.00 | 67 | 1012.0 | |
| 20260901034517 | 64 | 0.0 | 2.0 | 0.00 | 0.00 | 0.00 | 66 | 1011.7 | |
| 20260901033016 | 65 | 0.0 | 0.0 | 0.00 | 0.00 | 0.00 | 63 | 1011.7 | |
| 20260901031516 | 66 | 0.0 | 0.0 | 0.00 | 0.00 | 0.00 | 61 | 1011.5 | |
| 20260901030016 | 67 | 0.0 | 1.0 | 0.00 | 0.00 | 0.00 | 59 | 1011.4 | |
| 20260901024516 | 69 | 0.0 | 1.0 | 0.00 | 0.00 | 0.00 | 55 | 1011.2 | |
| 20260901023017 | 70 | 0.0 | 2.0 | 0.00 | 0.00 | 0.00 | 52 | 1011.2 | |
| 20260901021516 | 71 | 0.0 | 2.0 | 0.00 | 0.00 | 0.00 | 49 | 1011.2 | |
| 20260901020016 | 72 | 0.0 | 1.0 | 0.00 | 0.00 | 0.00 | 46 | 1011.1 | |
| 20260901014516 | 73 | 0.0 | 2.0 | 0.00 | 0.00 | 0.00 | 43 | 1011.1 | |
| 20260901013016 | 74 | 0.0 | 2.0 | 0.00 | 0.00 | 0.00 | 41 | 1011.4 | |
| 20260901011516 | 74 | 0.0 | 3.0 | 0.00 | 0.00 | 0.00 | 39 | 1011.4 | |
| 20260901010036 | 75 | 180 | 1.0 | 5.0 | 0.00 | 0.00 | 0.00 | 36 | 1011.3 |
| 20260901004516 | 75 | 158 | 1.0 | 4.0 | 0.00 | 0.00 | 0.00 | 38 | 1011.5 |
| 20260901003016 | 75 | 158 | 1.0 | 5.0 | 0.00 | 0.00 | 0.00 | 39 | 1011.7 |
| 20260901001516 | 76 | 0.0 | 3.0 | 0.00 | 0.00 | 0.00 | 40 | 1011.8 | |
| 20260901000016 | 76 | 135 | 1.0 | 3.0 | 0.00 | 0.00 | 0.00 | 39 | 1011.7 |
| 20260831234516 | 76 | 113 | 1.0 | 4.0 | 0.00 | 0.00 | 0.00 | 38 | 1012.0 |
| 20260831233016 | 77 | 113 | 1.0 | 4.0 | 0.00 | 0.00 | 0.00 | 37 | 1012.1 |
| 20260831231536 | 77 | 180 | 1.0 | 7.0 | 0.00 | 0.00 | 0.00 | 37 | 1012.1 |
| 20260831230016 | 78 | 113 | 1.0 | 5.0 | 0.00 | 0.00 | 0.00 | 37 | 1012.1 |
| 20260831224516 | 78 | 113 | 1.0 | 6.0 | 0.00 | 0.00 | 0.00 | 36 | 1012.2 |
| 20260831223016 | 79 | 180 | 1.0 | 4.0 | 0.00 | 0.00 | 0.00 | 34 | 1012.4 |
| 20260831221516 | 79 | 180 | 1.0 | 4.0 | 0.00 | 0.00 | 0.00 | 35 | 1012.3 |
| 20260831220016 | 79 | 113 | 2.0 | 9.0 | 0.00 | 0.00 | 0.00 | 35 | 1012.3 |
| 20260831214516 | 79 | 135 | 2.0 | 5.0 | 0.00 | 0.00 | 0.00 | 33 | 1012.4 |
| 20260831213016 | 80 | 203 | 1.0 | 6.0 | 0.00 | 0.00 | 0.00 | 35 | 1012.7 |
| 20260831211516 | 80 | 203 | 1.0 | 4.0 | 0.00 | 0.00 | 0.00 | 37 | 1012.9 |
| 20260831210016 | 80 | 135 | 1.0 | 6.0 | 0.00 | 0.00 | 0.00 | 37 | 1012.9 |
| 20260831204516 | 80 | 180 | 1.0 | 5.0 | 0.00 | 0.00 | 0.00 | 35 | 1012.9 |
| 20260831203016 | 80 | 225 | 1.0 | 5.0 | 0.00 | 0.00 | 0.00 | 38 | 1013.0 |
| 20260831201536 | 81 | 203 | 1.0 | 5.0 | 0.00 | 0.00 | 0.00 | 37 | 1013.2 |
| 20260831200016 | 81 | 270 | 1.0 | 4.0 | 0.00 | 0.00 | 0.00 | 40 | 1013.0 |
| 20260831194516 | 80 | 270 | 1.0 | 3.0 | 0.00 | 0.00 | 0.00 | 40 | 1013.2 |
| 20260831193016 | 80 | 270 | 1.0 | 4.0 | 0.00 | 0.00 | 0.00 | 40 | 1013.3 |
| 20260831191516 | 81 | 0.0 | 3.0 | 0.00 | 0.00 | 0.00 | 39 | 1013.3 | |
| 20260831190016 | 82 | 0.0 | 3.0 | 0.00 | 0.00 | 0.00 | 36 | 1013.3 | |
| 20260831184516 | 83 | 203 | 1.0 | 4.0 | 0.00 | 0.00 | 0.00 | 34 | 1013.4 |
| 20260831183016 | 82 | 158 | 1.0 | 5.0 | 0.00 | 0.00 | 0.00 | 36 | 1013.2 |
| 20260831181516 | 81 | 203 | 1.0 | 5.0 | 0.00 | 0.00 | 0.00 | 35 | 1013.1 |
| 20260831180016 | 82 | 113 | 1.0 | 5.0 | 0.00 | 0.00 | 0.00 | 35 | 1013.2 |
| 20260831174516 | 80 | 113 | 2.0 | 5.0 | 0.00 | 0.00 | 0.00 | 37 | 1013.4 |
| 20260831173016 | 80 | 135 | 1.0 | 4.0 | 0.00 | 0.00 | 0.00 | 37 | 1013.3 |
| 20260831171536 | 80 | 113 | 1.0 | 5.0 | 0.00 | 0.00 | 0.00 | 38 | 1013.6 |
| 20260831170016 | 78 | 113 | 1.0 | 4.0 | 0.00 | 0.00 | 0.00 | 38 | 1013.3 |
| 20260831164536 | 78 | 90 | 1.0 | 4.0 | 0.00 | 0.00 | 0.00 | 39 | 1013.3 |
| 20260831163015 | 76 | 45 | 1.0 | 4.0 | 0.00 | 0.00 | 0.00 | 39 | 1013.1 |
| 20260831161536 | 74 | 68 | 1.0 | 4.0 | 0.00 | 0.00 | 0.00 | 42 | 1012.9 |
| 20260831160016 | 73 | 68 | 1.0 | 4.0 | 0.00 | 0.00 | 0.00 | 44 | 1012.8 |
| 20260831154515 | 71 | 45 | 1.0 | 3.0 | 0.00 | 0.00 | 0.00 | 45 | 1012.7 |
| 20260831153015 | 71 | 68 | 1.0 | 4.0 | 0.00 | 0.00 | 0.00 | 44 | 1012.6 |
| 20260831151515 | 70 | 68 | 1.0 | 2.0 | 0.00 | 0.00 | 0.00 | 46 | 1012.8 |
| 20260831150015 | 70 | 0.0 | 1.0 | 0.00 | 0.00 | 0.00 | 47 | 1012.7 | |
| 20260831144516 | 68 | 0.0 | 0.0 | 0.00 | 0.00 | 0.00 | 48 | 1012.6 | |
| 20260831143015 | 67 | 0.0 | 2.0 | 0.00 | 0.00 | 0.00 | 49 | 1012.4 | |
| 20260831141515 | 67 | 0.0 | 1.0 | 0.00 | 0.00 | 0.00 | 47 | 1012.3 | |
| 20260831140016 | 67 | 0.0 | 1.0 | 0.00 | 0.00 | 0.00 | 47 | 1012.0 | |
| 20260831134516 | 66 | 0.0 | 4.0 | 0.00 | 0.00 | 0.00 | 47 | 1011.8 | |
| 20260831133016 | 66 | 0.0 | 0.0 | 0.00 | 0.00 | 0.00 | 48 | 1011.8 | |
| 20260831131516 | 66 | 0.0 | 2.0 | 0.00 | 0.00 | 0.00 | 47 | 1011.9 | |
| 20260831130015 | 66 | 0.0 | 1.0 | 0.00 | 0.00 | 0.00 | 48 | 1011.8 | |
| 20260831124515 | 65 | 0.0 | 2.0 | 0.00 | 0.00 | 0.00 | 48 | 1011.7 | |
| 20260831123016 | 65 | 0.0 | 2.0 | 0.00 | 0.00 | 0.00 | 49 | 1011.7 | |
| 20260831121516 | 65 | 0.0 | 0.0 | 0.00 | 0.00 | 0.00 | 49 | 1011.9 | |
| 20260831120015 | 65 | 0.0 | 0.0 | 0.00 | 0.00 | 0.00 | 48 | 1012.0 | |
| 20260831114516 | 66 | 0.0 | 0.0 | 0.00 | 0.00 | 0.00 | 47 | 1011.9 | |
| 20260831113015 | 66 | 0.0 | 0.0 | 0.00 | 0.00 | 0.00 | 46 | 1012.1 | |
| 20260831111516 | 66 | 0.0 | 0.0 | 0.00 | 0.00 | 0.00 | 46 | 1012.2 | |
| 20260831110016 | 66 | 0.0 | 0.0 | 0.00 | 0.00 | 0.00 | 47 | 1012.2 | |
| 20260831104516 | 66 | 0.0 | 0.0 | 0.00 | 0.00 | 0.00 | 47 | 1012.4 | |
| 20260831103015 | 66 | 0.0 | 0.0 | 0.00 | 0.00 | 0.00 | 48 | 1012.4 | |
| 20260831101515 | 66 | 0.0 | 0.0 | 0.00 | 0.00 | 0.00 | 47 | 1012.2 | |
| 20260831100016 | 66 | 0.0 | 0.0 | 0.00 | 0.00 | 0.00 | 47 | 1012.3 | |
| 20260831094515 | 66 | 0.0 | 0.0 | 0.00 | 0.00 | 0.00 | 46 | 1012.3 | |
| 20260831093015 | 66 | 0.0 | 0.0 | 0.00 | 0.00 | 0.00 | 47 | 1012.4 | |
| 20260831091515 | 66 | 0.0 | 0.0 | 0.00 | 0.00 | 0.00 | 48 | 1012.5 | |
| 20260831090015 | 66 | 0.0 | 0.0 | 0.00 | 0.00 | 0.00 | 48 | 1012.6 |